Tracking 28799 objects as of 18-Apr-2024
HD Live streaming from Space Station
objects crossing your sky now

FENGYUN 1C DEB

Track FENGYUN 1C DEB now!
10-day predictions


NORAD ID: 30686
Int'l Code: 1999-025AQU
Perigee: 575.9 km
Apogee: 831.8 km
Inclination: 99.0 °
Period: 98.7 minutes
Semi major axis: 7074 km
RCS: 0.0215 m2 (small)
Launch date: May 10, 1999
Source: People's Republic of China (PRC)
Launch site: Taiyaun Space Center, China (TSC)

Note: This is SATELLITE DEBRIS
Your satellite tracking list
Your tracking list is empty




NASA's NSSDC Master Catalog

Two Line Element Set (TLE):
1 30686U 99025AQU 24107.32420635  .00021316  00000-0  36221-2 0  9996
2 30686  98.9893 234.0189 0180853 187.5488 228.8496 14.58914727907221
Source of the keplerian elements: AFSPC